GW0571 Weather Reports


time (UTC)temp
C
wind
direction
speed
KPH
gust
KPH
rain 1hr
cm
rain 24hr
cm
rain mn
cm
humidity
%
barometer
mb
20260904085539 17 79 0.0 3.2 0.00 0.69 0.69 96
20260904085034 17 102 0.0 3.2 0.00 0.69 0.69 96
20260904084530 17 230 0.0 0.0 0.00 0.69 0.69 96
20260904084026 17 217 0.0 0.0 0.00 0.69 0.69 96
20260904083522 18 216 0.0 1.6 0.00 0.69 0.69 96
20260904083017 18 132 0.0 1.6 0.00 0.69 0.69 96
20260904082512 18 142 0.0 0.0 0.00 0.69 0.69 96
20260904082007 18 230 0.0 1.6 0.00 0.69 0.69 96
20260904081503 18 129 0.0 1.6 0.00 0.69 0.69 96
20260904080958 18 140 0.0 3.2 0.00 0.69 0.69 96
20260904080454 18 106 0.0 1.6 0.00 0.69 0.69 96
20260904075949 18 215 0.0 1.6 0.00 0.69 0.69 96
20260904075445 18 217 0.0 1.6 0.00 0.69 0.69 96
20260904074944 18 37 0.0 0.0 0.00 0.69 0.69 96
20260904074439 18 37 0.0 0.0 0.00 0.69 0.69 96
20260904073934 18 37 0.0 0.0 0.00 0.69 0.69 96
20260904073430 18 129 0.0 0.0 0.00 0.69 0.69 96
20260904072925 18 157 0.0 0.0 0.00 0.69 0.69 96
20260904072421 18 212 0.0 3.2 0.00 0.69 0.69 96
20260904071916 18 217 0.0 0.0 0.00 0.69 0.69 96
20260904071411 18 230 0.0 1.6 0.00 0.69 0.69 96
20260904070906 18 269 0.0 0.0 0.00 0.69 0.69 96
20260904070405 18 269 0.0 3.2 0.00 0.69 0.69 96
20260904065905 19 247 3.2 3.2 0.00 0.69 0.69 96
20260904065401 19 13 0.0 0.0 0.00 0.69 0.69 96
20260904064901 19 13 0.0 0.0 0.00 0.69 0.69 96
20260904064357 19 13 0.0 0.0 0.00 0.69 0.69 96
20260904063852 19 13 0.0 0.0 0.00 0.69 0.69 96
20260904063349 19 13 0.0 0.0 0.00 0.69 0.69 96
20260904062844 19 13 0.0 0.0 0.00 0.69 0.69 96
20260904062340 19 13 0.0 1.6 0.00 0.69 0.69 96
20260904061835 19 22 0.0 3.2 0.00 0.69 0.69 96
20260904061331 19 352 0.0 0.0 0.00 0.69 0.69 96
20260904060827 19 339 0.0 3.2 0.00 0.69 0.69 96
20260904060324 19 20 1.6 3.2 0.00 0.69 0.69 96
20260904055818 19 13 0.0 1.6 0.00 0.69 0.69 96
20260904055313 19 218 0.0 0.0 0.00 0.69 0.69 96
20260904054809 19 218 0.0 3.2 0.00 0.69 0.69 96
20260904054305 19 303 0.0 3.2 0.00 0.69 0.69 96
20260904053759 19 0 1.6 1.6 0.00 0.69 0.69 96
20260904053254 20 244 0.0 4.8 0.00 0.69 0.69 96
20260904052750 20 322 0.0 4.8 0.00 0.69 0.69 96
20260904052246 20 307 3.2 4.8 0.00 0.69 0.69 96
20260904051742 20 12 0.0 3.2 0.00 0.69 0.69 96
20260904051237 20 336 0.0 3.2 0.00 0.69 0.69 96
20260904050732 20 344 0.0 3.2 0.00 0.69 0.69 96
20260904050229 20 309 0.0 1.6 0.00 0.69 0.69 96
20260904045729 20 217 0.0 3.2 0.00 0.69 0.69 96
20260904045224 20 330 3.2 3.2 0.00 0.69 0.69 96
20260904044718 20 153 0.0 4.8 0.00 0.69 0.69 96
20260904044215 20 345 4.8 6.4 0.13 0.69 0.69 96
20260904043711 20 325 1.6 3.2 0.13 0.69 0.69 96
20260904043207 20 353 3.2 4.8 0.13 0.66 0.66 96
20260904042703 20 309 0.0 4.8 0.36 0.66 0.66 96
20260904042159 20 292 1.6 6.4 1.75 0.66 0.66 96
20260904041653 20 197 3.2 4.8 1.50 0.61 0.61 96
20260904041149 20 119 0.0 1.6 1.50 0.38 0.38 96
20260904040645 20 89 0.0 3.2 1.93 0.28 0.28 96
20260904040141 20 299 0.0 9.7 0.53 0.86 0.86 96
20260904035636 20 315 0.0 1.6 0.89 0.84 0.84 96
20260904035136 20 97 1.6 3.2 0.71 0.76 0.76 96
20260904034636 20 255 4.8 6.4 0.36 0.69 0.69 96
20260904034131 20 142 0.0 0.0 0.43 0.66 0.66 96
20260904033627 20 142 0.0 0.0 0.53 0.61 0.61 96
20260904033125 20 142 0.0 0.0 0.89 0.58 0.58 96
20260904032620 20 142 0.0 0.0 0.66 0.53 0.53 96
20260904032119 20 0 0.0 0.0 0.05 0.43 0.43 96
20260904031618 20 89 0.0 1.6 0.13 0.43 0.43 96
20260904031114 20 137 0.0 1.6 0.05 0.41 0.41 96
20260904030610 20 129 0.0 1.6 0.13 0.41 0.41 96
20260904030105 20 150 0.0 0.0 0.05 0.38 0.38 96
20260904025601 20 150 0.0 0.0 0.00 0.38 0.38 96
20260904025056 20 139 0.0 1.6 0.00 0.38 0.38 96
20260904024551 20 15 0.0 0.0 0.00 0.38 0.38 96
20260904024047 20 15 0.0 0.0 0.00 0.38 0.38 96
20260904023543 20 15 1.6 3.2 0.00 0.38 0.38 96
20260904023038 20 342 0.0 3.2 0.00 0.38 0.38 96
20260904022533 20 6 0.0 1.6 0.00 0.38 0.38 96
20260904022030 20 142 0.0 0.0 0.00 0.38 0.38 96
20260904021525 21 142 0.0 0.0 0.00 0.38 0.38 96
20260904021020 21 130 0.0 3.2 0.00 0.38 0.38 96
20260904020520 21 233 0.0 0.0 0.00 0.38 0.38 96
20260904020015 21 233 0.0 0.0 0.00 0.38 0.38 96
20260904015510 21 230 0.0 0.0 0.00 0.38 0.38 96
20260904015009 21 180 0.0 1.6 0.00 0.38 0.38 96
20260904014503 21 119 0.0 0.0 0.00 0.38 0.38 96
20260904013959 21 119 0.0 0.0 0.00 0.38 0.38 96
20260904013455 20 126 0.0 1.6 0.00 0.38 0.38 96
20260904012951 20 46 0.0 1.6 0.00 0.38 0.38 96
20260904012450 20 13 0.0 1.6 0.00 0.38 0.38 96
20260904011945 21 142 0.0 0.0 0.00 0.38 0.38 96
20260904011440 21 142 0.0 0.0 0.00 0.38 0.38 96
20260904010935 21 142 0.0 1.6 0.00 0.38 0.38 96
20260904010431 21 343 0.0 0.0 0.00 0.38 0.38 96
20260904005925 21 343 0.0 0.0 0.00 0.38 0.38 96
20260904005416 21 13 0.0 1.6 0.00 0.38 0.38 96
20260904004915 21 142 0.0 0.0 0.00 0.38 0.38 96
20260904004413 21 142 0.0 0.0 0.00 0.38 0.38 96
20260904003912 21 140 1.6 3.2 0.00 0.38 0.38 96
20260904003403 21 137 0.0 1.6 0.00 0.38 0.38 96
20260904002857 21 130 0.0 1.6 0.00 0.38 0.38 96
20260904002354 21 121 1.6 1.6 0.00 0.38 0.38 96
20260904001853 21 117 0.0 1.6 0.00 0.38 0.38 96
20260904001349 21 235 0.0 0.0 0.00 0.38 0.38 96
20260904000843 21 235 0.0 0.0 0.00 0.38 0.38 96
20260904000343 21 229 0.0 3.2 0.00 0.38 0.38 96
20260903235842 22 296 0.0 1.6 0.00 0.38 0.38 96
20260903235339 22 322 0.0 1.6 0.00 0.38 0.38 96
20260903234838 22 142 0.0 0.0 0.00 0.38 0.38 96
20260903234334 22 142 0.0 0.0 0.00 0.38 0.38 96
20260903233831 22 142 0.0 0.0 0.00 0.38 0.38 96
20260903233326 22 142 0.0 1.6 0.00 0.38 0.38 96
20260903232825 22 129 0.0 0.0 0.00 0.38 0.38 95
20260903232321 22 129 0.0 0.0 0.00 0.38 0.38 94
20260903231820 23 142 0.0 0.0 0.00 0.38 0.38 94
20260903231316 23 142 0.0 1.6 0.00 0.38 0.38 93
20260903230811 23 148 1.6 3.2 0.00 0.38 0.38 93
20260903230306 23 154 0.0 0.0 0.00 0.38 0.38 93
20260903225802 23 217 0.0 0.0 0.00 0.38 0.38 92
20260903225258 24 217 0.0 0.0 0.00 0.38 0.38 92
20260903224754 24 217 0.0 0.0 0.00 0.38 0.38 90
20260903224250 25 217 0.0 0.0 0.00 0.38 0.38 89
20260903223745 25 217 0.0 1.6 0.00 0.38 0.38 89
20260903223243 25 242 0.0 1.6 0.00 0.38 0.38 89
20260903222739 25 339 0.0 1.6 0.00 0.38 0.38 88
20260903222238 25 154 0.0 3.2 0.00 0.38 0.38 86
20260903221733 25 228 0.0 0.0 0.00 0.38 0.38 85
20260903221232 25 228 0.0 0.0 0.00 0.38 0.38 86
20260903220730 26 228 0.0 0.0 0.00 0.38 0.38 83
20260903220225 26 228 0.0 0.0 0.00 0.38 0.38 82
20260903215724 26 244 3.2 3.2 0.00 0.38 0.38 79
20260903215220 26 229 0.0 1.6 0.00 0.38 0.38 81
20260903214718 26 209 0.0 0.0 0.00 0.38 0.38 80
20260903214214 27 288 0.0 1.6 0.00 0.38 0.38 78
20260903213708 26 293 0.0 4.8 0.00 0.38 0.38 78
20260903213204 26 263 4.8 9.7 0.00 0.38 0.38 77
20260903212700 26 282 1.6 6.4 0.00 0.38 0.38 78
20260903212156 26 310 1.6 11.3 0.00 0.38 0.38 79
20260903211649 26 256 3.2 12.9 0.00 0.38 0.38 75
20260903211146 27 252 9.7 11.3 0.00 0.38 0.38 74
20260903210642 27 250 4.8 8.0 0.00 0.38 0.38 74
20260903210137 27 271 3.2 6.4 0.00 0.38 0.38 75
20260903205631 27 242 4.8 11.3 0.00 0.38 0.38 72
20260903205130 27 103 0.0 4.8 0.00 0.38 0.38 76
20260903204626 26 256 4.8 4.8 0.00 0.38 0.38 80
20260903204122 26 309 0.0 1.6 0.00 0.38 0.38 77
20260903203618 26 230 0.0 3.2 0.00 0.38 0.38 80
20260903203112 25 258 4.8 4.8 0.00 0.38 0.38 79
20260903202607 25 242 0.0 1.6 0.00 0.38 0.38 80
20260903202102 25 330 1.6 8.0 0.00 0.38 0.38 80
20260903201551 25 238 4.8 11.3 0.00 0.38 0.38 78
20260903201050 25 288 0.0 4.8 0.00 0.38 0.38 81
20260903200546 25 247 6.4 12.9 0.00 0.38 0.38 79
20260903200041 25 239 9.7 12.9 0.00 0.38 0.38 79
20260903195537 25 263 4.8 8.0 0.00 0.38 0.38 80 1014.2
20260903195032 25 291 1.6 6.4 0.00 0.38 0.38 79 1014.2
20260903194527 25 267 3.2 8.0 0.00 0.38 0.38 79 1014.2
20260903194022 26 326 0.0 9.7 0.00 0.38 0.38 78 1014.2
20260903193519 26 243 4.8 6.4 0.00 0.38 0.38 78 1014.2
20260903193014 26 248 0.0 6.4 0.00 0.38 0.38 78 1014.2
20260903192511 26 264 3.2 4.8 0.00 0.38 0.38 80 1014.2
20260903192010 26 250 6.4 8.0 0.00 0.38 0.38 78 1014.2
20260903191507 26 225 4.8 9.7 0.00 0.38 0.38 77 1014.2
20260903191001 26 235 3.2 4.8 0.00 0.38 0.38 81 1014.2
20260903190500 25 245 4.8 6.4 0.00 0.38 0.38 78 1014.2
20260903185954 25 238 6.4 11.3 0.00 0.38 0.38 79 1014.2
20260903185451 25 247 4.8 9.7 0.00 0.38 0.38 81 1014.6
20260903184950 25 255 12.9 12.9 0.00 0.38 0.38 80 1014.6
20260903184447 25 101 0.0 6.4 0.00 0.38 0.38 80 1014.6
20260903183942 25 239 3.2 11.3 0.00 0.38 0.38 79 1014.6
20260903183436 25 241 6.4 9.7 0.00 0.38 0.38 78 1014.6
20260903182936 26 144 3.2 14.5 0.00 0.38 0.38 77 1014.6
20260903182434 27 223 4.8 8.0 0.00 0.38 0.38 75 1014.6
20260903181930 26 250 3.2 9.7 0.00 0.38 0.38 78 1014.6
20260903181425 26 240 0.0 6.4 0.00 0.38 0.38 76 1014.6
20260903180924 25 207 1.6 4.8 0.00 0.38 0.38 80 1014.6
20260903180419 25 248 3.2 8.0 0.00 0.38 0.38 81 1014.4
20260903175919 25 280 1.6 8.0 0.00 0.38 0.38 83 1014.4
20260903175413 25 256 6.4 11.3 0.00 0.38 0.38 81 1014.4
20260903174907 25 308 3.2 11.3 0.00 0.38 0.38 80 1014.4
20260903174402 25 255 4.8 6.4 0.00 0.38 0.38 80 1014.3
20260903173857 25 251 6.4 11.3 0.00 0.38 0.38 80 1014.6
20260903173352 25 278 1.6 6.4 0.00 0.38 0.38 80 1014.1
20260903172848 24 257 4.8 6.4 0.00 0.38 0.38 82 1014.6
20260903172348 24 246 1.6 4.8 0.00 0.38 0.38 82 1014.4
20260903171843 24 242 4.8 9.7 0.00 0.38 0.38 81 1014.6
20260903171338 24 245 11.3 14.5 0.00 0.38 0.38 80 1014.4
20260903170838 25 216 4.8 6.4 0.00 0.38 0.38 81 1014.4
20260903170333 25 245 6.4 8.0 0.00 0.38 0.38 80 1014.4
20260903165831 25 249 3.2 8.0 0.00 0.38 0.38 82 1014.6
20260903165331 25 256 12.9 14.5 0.00 0.38 0.38 78 1014.6
20260903164826 25 238 3.2 9.7 0.00 0.38 0.38 79 1014.6
20260903164321 25 294 1.6 8.0 0.00 0.38 0.38 80 1014.6
20260903163820 25 292 4.8 8.0 0.00 0.38 0.38 82 1014.7
20260903163317 25 284 0.0 4.8 0.00 0.38 0.38 85 1014.3
20260903162813 25 239 4.8 12.9 0.00 0.38 0.38 82 1014.9
20260903162309 24 202 0.0 9.7 0.00 0.38 0.38 84 1014.7
20260903161804 24 269 1.6 11.3 0.00 0.38 0.38 85 1014.8
20260903161300 23 175 4.8 14.5 0.00 0.38 0.38 85 1015.0
20260903160755 23 243 6.4 9.7 0.00 0.38 0.38 84 1014.8
20260903160254 23 233 8.0 11.3 0.00 0.38 0.38 86 1015.1
20260903155753 23 242 6.4 16.1 0.00 0.38 0.38 86 1015.2
20260903155248 23 259 4.8 9.7 0.00 0.38 0.38 87 1015.2
20260903154744 22 201 1.6 11.3 0.00 0.38 0.38 88 1015.3
20260903154239 22 203 1.6 9.7 0.00 0.38 0.38 90 1015.5
20260903153735 22 269 0.0 6.4 0.00 0.38 0.38 91 1015.4
20260903153231 21 257 1.6 4.8 0.00 0.38 0.38 92 1015.6
20260903152727 21 236 3.2 4.8 0.00 0.38 0.38 92 1015.5
20260903152223 21 202 1.6 4.8 0.00 0.38 0.38 92 1015.7
20260903151722 21 207 4.8 6.4 0.00 0.38 0.38 93 1015.6
20260903151218 21 215 3.2 4.8 0.00 0.38 0.38 93 1015.6
20260903150713 21 235 4.8 8.0 0.00 0.38 0.38 92 1015.4
20260903150207 21 165 4.8 9.7 0.00 0.38 0.38 92 1015.5
20260903145702 21 253 3.2 11.3 0.00 0.38 0.38 92 1015.4
20260903145157 21 143 6.4 11.3 0.00 0.38 0.38 92 1015.4
20260903144656 21 244 3.2 14.5 0.00 0.38 0.38 93 1015.2
20260903144152 21 247 8.0 12.9 0.00 0.38 0.38 92 1015.2
20260903143648 21 203 3.2 6.4 0.00 0.38 0.38 94 1015.3
20260903143143 20 247 9.7 11.3 0.00 0.38 0.38 95 1015.4
20260903142638 20 125 4.8 12.9 0.00 0.38 0.38 96 1015.4
20260903142135 20 225 4.8 9.7 0.00 0.38 0.38 96 1015.4
20260903141630 20 213 3.2 9.7 0.00 0.38 0.38 96 1015.3
20260903141125 20 162 3.2 8.0 0.00 0.38 0.38 96 1015.3
20260903140622 20 140 3.2 8.0 0.00 0.38 0.38 96 1015.4
20260903140117 20 149 3.2 6.4 0.00 0.38 0.38 96 1015.4
20260903135613 20 212 0.0 8.0 0.00 0.38 0.38 96 1015.3
20260903135112 20 245 3.2 4.8 0.00 0.38 0.38 96 1015.2
20260903134611 20 186 1.6 9.7 0.00 0.38 0.38 96 1015.3
20260903134107 20 226 4.8 8.0 0.00 0.38 0.38 96 1015.1
20260903133605 20 222 4.8 11.3 0.00 0.38 0.38 96 1015.0
20260903133101 20 260 4.8 8.0 0.00 0.38 0.38 96 1015.0
20260903132556 20 254 3.2 9.7 0.00 0.38 0.38 96 1014.9
20260903132050 20 246 6.4 9.7 0.00 0.38 0.38 96 1014.9
20260903131549 20 245 8.0 9.7 0.00 0.38 0.38 96 1015.2
20260903131044 20 226 4.8 8.0 0.00 0.38 0.38 96 1015.2
20260903130544 20 225 3.2 9.7 0.00 0.38 0.38 96 1015.3
20260903130039 20 252 6.4 9.7 0.00 0.38 0.38 96 1015.3
20260903125537 19 145 4.8 6.4 0.00 0.38 0.38 96 1015.3
20260903125033 19 253 3.2 4.8 0.00 0.38 0.38 96 1015.3
20260903124532 19 253 4.8 9.7 0.00 0.38 0.38 96 1015.3
20260903124027 19 253 4.8 6.4 0.00 0.38 0.38 96 1015.4
20260903123521 19 217 3.2 6.4 0.00 0.38 0.38 96 1015.4
20260903123020 19 174 1.6 4.8 0.00 0.38 0.38 96 1015.3
20260903122520 19 259 3.2 4.8 0.00 0.38 0.38 96 1015.3
20260903122019 18 217 0.0 4.8 0.00 0.38 0.38 96 1015.1
20260903121514 18 226 1.6 3.2 0.00 0.38 0.38 96 1015.1
20260903121010 18 215 0.0 4.8 0.00 0.38 0.38 96 1015.0
20260903120508 18 224 0.0 3.2 0.00 0.38 0.38 96 1014.9
20260903120003 18 240 0.0 3.2 0.00 0.38 0.38 96 1015.0
20260903115501 18 180 0.0 3.2 0.00 0.38 0.38 96 1015.0
20260903114956 18 89 0.0 3.2 0.00 0.38 0.38 96 1014.9
20260903114451 18 338 0.0 3.2 0.00 0.38 0.38 96 1014.9
20260903113947 17 141 0.0 1.6 0.00 0.38 0.38 96 1014.9
20260903113442 17 246 0.0 3.2 0.05 0.38 0.38 96 1014.9
20260903112938 17 236 0.0 3.2 0.05 0.38 0.38 96 1014.9
20260903112433 17 245 0.0 4.8 0.05 0.38 0.38 96 1014.7
20260903111932 17 240 0.0 3.2 0.00 0.38 0.38 96 1014.4
20260903111427 17 219 0.0 3.2 0.00 0.38 0.38 96 1014.6
20260903110924 17 206 0.0 3.2 0.00 0.38 0.38 96 1014.7
20260903110419 17 151 0.0 1.6 0.00 0.38 0.38 96 1014.6
20260903105914 17 177 0.0 1.6 0.00 0.38 0.38 96 1014.2
20260903105409 17 260 0.0 0.0 0.00 0.38 0.38 96 1014.4
20260903104908 17 233 0.0 1.6 0.00 0.38 0.38 96 1014.4
20260903104403 17 222 0.0 3.2 0.00 0.38 0.38 96 1014.8
20260903103900 17 209 3.2 4.8 0.00 0.38 0.38 96 1014.6
20260903103355 17 225 0.0 3.2 0.00 0.38 0.38 96 1014.6
20260903102850 17 129 0.0 1.6 0.00 0.38 0.38 96 1014.7
20260903102345 17 212 0.0 1.6 0.00 0.38 0.38 96 1014.6
20260903101844 17 316 0.0 1.6 0.00 0.38 0.38 96 1014.7
20260903101334 17 50 0.0 1.6 0.00 0.38 0.38 96 1014.6
20260903100830 17 89 0.0 1.6 0.00 0.38 0.38 96 1014.6
20260903100330 17 240 0.0 1.6 0.00 0.38 0.38 96 1014.9
20260903095826 17 159 0.0 3.2 0.00 0.38 0.38 96 1014.8
20260903095321 17 265 0.0 1.6 0.00 0.38 0.38 96 1014.9
20260903094816 17 230 0.0 3.2 0.00 0.38 0.38 96 1014.8
20260903094311 17 226 0.0 3.2 0.00 0.38 0.38 96 1014.7
20260903093807 17 233 1.6 3.2 0.00 0.38 0.38 96 1014.9
20260903093301 17 130 1.6 4.8 0.00 0.38 0.38 96 1014.8
20260903092756 17 166 0.0 4.8 0.00 0.38 0.38 96 1014.7
20260903092251 17 267 1.6 3.2 0.00 0.38 0.38 96 1014.9
20260903091750 17 269 0.0 3.2 0.00 0.38 0.38 96 1015.1
20260903091244 17 203 1.6 3.2 0.05 0.38 0.38 96 1015.1
20260903090740 17 235 0.0 1.6 0.05 0.38 0.38 96 1015.0
20260903090239 17 325 0.0 3.2 0.00 0.36 0.36 96 1015.0